Pampa, TX

12:02 PM CST on February 24, 2017 (GMT -0600)
Perry Lefors

Weather History for KPPA - March, 2014

Change the Weather History Date:

Sunday, March 16, 2014

  Actual Average Record
Temperature  
Mean Temperature 36 °F -  
Max Temperature 47 °F 59 °F 84 °F (2012)
Min Temperature 26 °F 31 °F 21 °F (1976)
Degree Days  
Heating Degree Days 28    
Moisture  
Dew Point 22 °F    
Average Humidity 55    
Maximum Humidity 78    
Minimum Humidity 33    
Precipitation  
Precipitation 0.00 in - - ()
Sea Level Pressure  
Sea Level Pressure 30.16 in    
Wind  
Wind Speed 23 mph (North)    
Max Wind Speed 32 mph    
Max Gust Speed 46 mph    
Visibility 10 miles    
Events      
Averages and records for this station are not official NWS values.
T = Trace of Precipitation, MM = Missing Value Source: NWS Daily Summary

Daily Weather History Graph

Daily Weather History Graph

Search for Another Location

Airport or City:

Trip Planner

Search our weather history database for the weather conditions in past years. The results will help you decide how hot, cold, wet, or windy it might be!

Date:

Astronomy

Mar. 16, 2014 Rise Set
Actual Time 7:53 AM CDT 7:52 PM CDT
Civil Twilight 7:27 AM CDT 8:17 PM CDT
Nautical Twilight 6:58 AM CDT 8:47 PM CDT
Astronomical Twilight 6:28 AM CDT 9:17 PM CDT
Moon 8:10 PM CDT (3/16) 7:38 AM CDT (3/16)
Length of Visible Light 12h 50m
Length of Day
11h 59m
Full, 100% of the Moon is Illuminated
Mar 16
Full
Mar 16
Full
Mar 23
Last Quarter
Mar 30
New
Apr 7
First Quarter

Hourly Weather History & Observations

Time (CDT) Temp. Windchill Dew Point Humidity Pressure Visibility Wind Dir Wind Speed Gust Speed Precip Events Conditions
12:15 AM 44.6 °F 34.4 °F 32.0 °F 61% 30.06 in 7.0 mi North 32.2 mph 46.0 mph N/A   Overcast
12:35 AM 43.7 °F 33.5 °F 32.0 °F 63% 30.07 in 7.0 mi North 29.9 mph 46.0 mph N/A   Overcast
1:15 AM 41.9 °F 32.3 °F 31.1 °F 66% 30.07 in 10.0 mi North 23.0 mph 38.0 mph N/A   Clear
1:35 AM 41.0 °F 29.8 °F 31.1 °F 68% 30.08 in 10.0 mi North 29.9 mph 40.3 mph N/A   Clear
1:55 AM 41.0 °F 30.0 °F 30.9 °F 67% 30.09 in 10.0 mi North 28.8 mph 35.7 mph N/A   Scattered Clouds
2:15 AM 41.0 °F 30.0 °F 31.1 °F 68% 30.09 in 10.0 mi North 28.8 mph 41.4 mph N/A   Overcast
2:35 AM 40.6 °F 29.2 °F 30.7 °F 68% 30.10 in 10.0 mi North 31.1 mph 44.9 mph N/A   Overcast
2:55 AM 40.3 °F 29.5 °F 31.1 °F 70% 30.11 in 10.0 mi North 26.5 mph 39.1 mph N/A   Overcast
3:15 AM 37.8 °F 26.8 °F 25.9 °F 62% 30.12 in 10.0 mi North 23.0 mph 34.5 mph N/A   Scattered Clouds
3:35 AM 36.9 °F 24.7 °F 25.7 °F 64% 30.12 in 10.0 mi North 27.6 mph 38.0 mph N/A   Clear
3:55 AM 36.1 °F 23.3 °F 25.0 °F 64% 30.12 in 10.0 mi North 29.9 mph 38.0 mph N/A   Clear
4:15 AM 35.2 °F 23.0 °F 23.0 °F 61% 30.12 in 10.0 mi North 25.3 mph 36.8 mph N/A   Clear
4:35 AM 34.3 °F 22.0 °F 22.5 °F 62% 30.12 in 10.0 mi North 24.2 mph 29.9 mph N/A   Clear
4:55 AM 33.8 °F 20.8 °F 22.1 °F 62% 30.13 in 10.0 mi North 26.5 mph 35.7 mph N/A   Clear
5:15 AM 33.3 °F 19.3 °F 21.7 °F 63% 30.14 in 10.0 mi North 29.9 mph 41.4 mph N/A   Clear
5:35 AM 32.5 °F 18.8 °F 21.9 °F 65% 30.14 in 10.0 mi North 27.6 mph 38.0 mph N/A   Clear
5:55 AM 32.0 °F 18.6 °F 21.7 °F 66% 30.15 in 10.0 mi North 25.3 mph 34.5 mph N/A   Clear
6:15 AM 31.8 °F 18.7 °F 21.7 °F 66% 30.16 in 10.0 mi North 24.2 mph 31.1 mph N/A   Clear
6:35 AM 31.1 °F 17.2 °F 21.9 °F 69% 30.16 in 10.0 mi North 26.5 mph 32.2 mph N/A   Clear
6:55 AM 30.4 °F 17.7 °F 22.1 °F 71% 30.17 in 10.0 mi North 20.7 mph 29.9 mph N/A   Clear
7:15 AM 30.0 °F 17.2 °F 22.3 °F 73% 30.18 in 10.0 mi North 20.7 mph 27.6 mph N/A   Clear
7:35 AM 29.3 °F 16.2 °F 22.6 °F 76% 30.19 in 10.0 mi North 20.7 mph 31.1 mph N/A   Clear
7:55 AM 30.0 °F 16.6 °F 23.2 °F 76% 30.19 in 10.0 mi North 23.0 mph 31.1 mph N/A   Mostly Cloudy
8:15 AM 30.0 °F 17.5 °F 23.4 °F 76% 30.21 in 10.0 mi North 19.6 mph 26.5 mph N/A   Mostly Cloudy
8:35 AM 29.1 °F 16.4 °F 23.0 °F 78% 30.22 in 10.0 mi North 19.6 mph 28.8 mph N/A   Mostly Cloudy
8:55 AM 30.4 °F 17.3 °F 23.9 °F 77% 30.22 in 10.0 mi North 21.9 mph 28.8 mph N/A   Clear
9:15 AM 31.6 °F 19.0 °F 23.9 °F 73% 30.23 in 10.0 mi North 21.9 mph 27.6 mph N/A   Scattered Clouds
9:35 AM 32.0 °F 20.5 °F 24.3 °F 73% 30.24 in 10.0 mi North 18.4 mph 28.8 mph N/A   Scattered Clouds
9:55 AM 34.7 °F 21.8 °F 25.0 °F 68% 30.24 in 10.0 mi North 27.6 mph 34.5 mph N/A   Scattered Clouds
10:15 AM 35.6 °F 23.2 °F 24.8 °F 65% 30.24 in 10.0 mi North 26.5 mph 35.7 mph N/A   Scattered Clouds
10:35 AM 36.5 °F 24.2 °F 24.6 °F 62% 30.25 in 10.0 mi North 27.6 mph 36.8 mph N/A   Clear
10:55 AM 37.6 °F 25.6 °F 24.6 °F 60% 30.26 in 10.0 mi North 27.6 mph 36.8 mph N/A   Clear
11:15 AM 38.7 °F 27.8 °F 24.8 °F 58% 30.27 in 10.0 mi North 24.2 mph 35.7 mph N/A   Scattered Clouds
11:35 AM 37.9 °F 26.1 °F 24.3 °F 58% 30.26 in 10.0 mi North 27.6 mph 35.7 mph N/A   Mostly Cloudy
11:55 AM 38.8 °F 27.6 °F 24.3 °F 56% 30.25 in 10.0 mi North 26.5 mph 36.8 mph N/A   Scattered Clouds
12:15 PM 40.8 °F 30.0 °F 24.3 °F 52% 30.25 in 10.0 mi North 27.6 mph 35.7 mph N/A   Scattered Clouds
12:35 PM 41.7 °F 31.6 °F 23.4 °F 48% 30.25 in 10.0 mi North 25.3 mph 34.5 mph N/A   Scattered Clouds
12:55 PM 41.7 °F 32.1 °F 23.0 °F 47% 30.24 in 10.0 mi North 23.0 mph 35.7 mph N/A   Scattered Clouds
1:15 PM 42.8 °F 33.1 °F 22.8 °F 45% 30.23 in 10.0 mi North 25.3 mph 36.8 mph N/A   Scattered Clouds
1:55 PM 43.0 °F 32.9 °F 22.3 °F 44% 30.22 in 10.0 mi North 27.6 mph 32.2 mph N/A   Clear
2:15 PM 43.7 °F 34.3 °F 21.9 °F 42% 30.21 in 10.0 mi North 25.3 mph 33.4 mph N/A   Clear
2:35 PM 43.7 °F 34.7 °F 21.9 °F 42% 30.21 in 10.0 mi North 23.0 mph 31.1 mph N/A   Clear
2:55 PM 44.4 °F 36.9 °F 21.4 °F 40% 30.19 in 10.0 mi North 17.3 mph 29.9 mph N/A   Clear
3:15 PM 44.8 °F 37.4 °F 21.0 °F 39% 30.18 in 10.0 mi North 17.3 mph 26.5 mph N/A   Clear
3:35 PM 45.5 °F 38.3 °F 20.8 °F 38% 30.17 in 10.0 mi North 17.3 mph 29.9 mph N/A   Clear
3:55 PM 45.7 °F 38.3 °F 20.7 °F 37% 30.16 in 10.0 mi North 18.4 mph 29.9 mph N/A   Clear
4:15 PM 46.0 °F 38.3 °F 20.7 °F 37% 30.16 in 10.0 mi North 20.7 mph 32.2 mph N/A   Clear
4:35 PM 46.4 °F 39.2 °F 20.3 °F 36% 30.15 in 10.0 mi North 18.4 mph 27.6 mph N/A   Clear
4:55 PM 46.9 °F - 19.8 °F 34% 30.14 in 10.0 mi North 16.1 mph 27.6 mph N/A   Scattered Clouds
5:15 PM 47.1 °F - 19.6 °F 34% 30.14 in 10.0 mi NNE 20.7 mph 24.2 mph N/A   Clear
5:35 PM 47.1 °F - 19.2 °F 33% 30.14 in 10.0 mi North 19.6 mph 26.5 mph N/A   Clear
5:55 PM 46.6 °F - 18.7 °F 33% 30.14 in 10.0 mi NNE 20.7 mph 25.3 mph N/A   Clear
6:15 PM 46.4 °F 39.5 °F 18.7 °F 33% 30.13 in 10.0 mi North 17.3 mph 21.9 mph N/A   Clear
6:35 PM 46.4 °F 40.1 °F 18.7 °F 33% 30.14 in 10.0 mi NNE 15.0 mph - N/A   Clear
6:55 PM 45.7 °F 40.6 °F 18.7 °F 34% 30.14 in 10.0 mi NNE 10.4 mph 20.7 mph N/A   Clear
7:15 PM 44.6 °F 38.8 °F 18.7 °F 36% 30.14 in 10.0 mi NNE 11.5 mph 17.3 mph N/A   Clear
7:35 PM 43.5 °F 39.4 °F 18.7 °F 37% 30.13 in 10.0 mi NNE 6.9 mph - N/A   Clear
7:55 PM 40.3 °F 35.5 °F 18.1 °F 41% 30.13 in 10.0 mi NNE 6.9 mph - N/A   Clear
8:15 PM 37.0 °F 32.4 °F 17.6 °F 45% 30.14 in 10.0 mi North 5.8 mph - N/A   Clear
8:35 PM 36.0 °F 32.1 °F 17.4 °F 47% 30.13 in 10.0 mi North 4.6 mph - N/A   Clear
8:55 PM 36.5 °F 30.3 °F 17.8 °F 47% 30.14 in 10.0 mi North 8.1 mph - N/A   Clear
9:15 PM 35.1 °F 29.3 °F 17.2 °F 48% 30.14 in 10.0 mi North 6.9 mph - N/A   Clear
9:35 PM 35.8 °F - 17.8 °F 48% 30.13 in 10.0 mi Calm Calm - N/A   Clear
9:55 PM 36.5 °F - 18.3 °F 48% 30.13 in 10.0 mi Calm Calm - N/A   Clear
10:15 PM 37.8 °F - 18.9 °F 47% 30.14 in 10.0 mi Calm Calm - N/A   Clear
10:35 PM 37.4 °F - 18.9 °F 47% 30.13 in 10.0 mi Calm Calm - N/A   Clear
10:55 PM 28.4 °F 22.2 °F 14.5 °F 56% 30.12 in 10.0 mi South 5.8 mph - N/A   Clear
11:15 PM 26.6 °F 20.0 °F 15.3 °F 62% 30.11 in 10.0 mi South 5.8 mph - N/A   Clear
11:35 PM 27.5 °F 20.2 °F 15.3 °F 60% 30.11 in 10.0 mi SSW 6.9 mph - N/A   Clear
11:55 PM 29.5 °F 24.5 °F 16.2 °F 58% 30.11 in 10.0 mi South 4.6 mph - N/A   Clear